"Pseudo-MPEC" for ZTF10Fc

Created 2026 Aug 25 21:35:13 UT using Find_Orb

Click here for an explanation of pseudo-MPECs

 
 Astrometry: 
     ZTF10Fc*0C2026 08 25.36451403 03 52.366+02 08 54.20   ~8PHo 17.63iUNEOCPI41
     ZTF10Fc 0C2026 08 25.36486103 03 53.057+02 08 38.61   ~8PHo 17.63iUNEOCPI41
     ZTF10Fc 0C2026 08 25.42204103 05 50.027+01 24 54.63   ~8PHo 18.34gUNEOCPI41
     ZTF10Fc 0C2026 08 25.42238903 05 50.756+01 24 37.87   ~8PHo 18.34gUNEOCPI41

Station data:
(I41) Palomar Mountain--ZTF  (N33.357336 W116.859780)  US/California.
   Observers B. T. Bolin, Z. T. F. Collaboration. Measurers B. T. Bolin,
   Z.-Y. Lin, F. J. Masci. 1.2-m f/2.4 Schmidt.

Orbital elements:  ZTF10Fc
   Perihelion 2026 Oct 7.646448 +/- 20.7 TT = 15:30:53.0 (JD 2461321.146448)
Epoch 2026 Aug 25.0 TT = JDT 2461277.5   Earth MOID: 0.0110   Ju: 0.3167
M 355.453108348 +/- 49              Ve: 0.0084   Me: 0.0664   Ma: 0.0073
n   0.104175526 +/- 0.376           Peri.  281.773878 +/- 70     AutoNEOCP
a   4.473274829 +/- 10.8            Node   164.011574 +/- 60
e   0.88154582 +/- 0.214            Incl.  176.689999 +/- 57
P   9.46103                H 22.41  G  0.15   U 12.1  SR
q 0.529878076 +/- 0.312    Q 8.416671581 +/- 11.7         (J2000 ecliptic)
From 4 observations 2026 Aug. 25 (83.3 min); mean residual 0".14
Residuals in arcseconds: 
260825 I41  .09-  .23+    260825 I41  .12+  .02-    
260825 I41  .09+  .23-    260825 I41  .12-  .03+    

Ephemerides (geocentric):
Date (UTC) HH   RA             Dec           delta  r     elong  mag " sig PA
---- --------  ------------   ------------  ------ ------ -----  --- --------
2026 08 25 22  03 38 00.810   -10 14 40.30  .02243 1.0153 101.4 16.9  36d  78
2026 08 25 23  03 43 10.384   -12 02 47.87  .02112 1.0147 100.5 16.8  39d  80
2026 08 26 00  03 49 05.197   -14 04 31.23  .01985 1.0141  99.4 16.7  41d  81
2026 08 26 01  03 55 55.351   -16 21 54.39  .01863 1.0134  98.1 16.6  41d  82
2026 08 26 02  04 03 53.959   -18 57 11.79  .01745 1.0128  96.7 16.5  42d  82
2026 08 26 03  04 13 18.206   -21 52 39.21  .01634 1.0122  95.0 16.4  43d  81
2026 08 26 04  04 24 30.818   -25 10 14.81  .01530 1.0115  93.1 16.4  44d  80
2026 08 26 05  04 38 01.962   -28 51 04.26  .01435 1.0109  90.8 16.3  44d  80
2026 08 26 06  04 54 31.531   -32 54 22.75  .01352 1.0103  88.3 16.3  44d  80
2026 08 26 07  05 14 51.182   -37 16 09.86  .01282 1.0096  85.4 16.3  43d  80
2026 08 26 08  05 40 04.166   -41 47 24.76  .01228 1.0090  82.4 16.4  41d  80
2026 08 26 09  06 11 17.996   -46 12 37.85  .01192 1.0084  79.1 16.4  39d  85
2026 08 26 10  06 49 20.918   -50 09 57.05  .01175 1.0077  75.8 16.6  37d  85
2026 08 26 11  07 33 55.177   -53 14 39.34  .01179 1.0071  72.8 16.8  35d  85
2026 08 26 12  08 22 46.351   -55 06 57.21  .01202 1.0065  70.0 17.0  34d  86
2026 08 26 13  09 11 51.722   -55 40 45.34  .01245 1.0058  67.6 17.2  33d  86
2026 08 26 14  09 57 01.819   -55 06 15.97  .01305 1.0052  65.7 17.4  34d  87
2026 08 26 15  10 35 48.668   -53 43 31.78  .01380 1.0046  64.2 17.6  36d  88
2026 08 26 16  11 07 44.174   -51 53 12.34  .01467 1.0040  63.1 17.8  37d  89
2026 08 26 17  11 33 32.194   -49 51 13.33  .01565 1.0033  62.3 18.0  39d  89
2026 08 26 18  11 54 19.698   -47 47 52.72  .01671 1.0027  61.8 18.2  41d  90
2026 08 26 19  12 11 10.929   -45 49 01.79  .01785 1.0021  61.4 18.3  43d  90
2026 08 26 20  12 24 58.848   -43 57 35.11  .01904 1.0014  61.2 18.5  44d  90
2026 08 26 21  12 36 24.511   -42 14 41.08  .02029 1.0008  61.0 18.6  46d  91
2026 08 26 22  12 45 59.004   -40 40 28.66  .02157 1.0002  61.0 18.8  47d  91
2026 08 26 23  12 54 05.740   -39 14 35.84  .02288 0.9995  60.9 18.9  48d  91
2026 08 27 00  13 01 02.413   -37 56 26.13  .02423 0.9989  61.0 19.0  49d  92
2026 08 27 01  13 07 02.511   -36 45 17.83  .02559 0.9983  61.0 19.1  50d  92
2026 08 27 02  13 12 16.414   -35 40 28.96  .02698 0.9976  61.0 19.2  50d  92
2026 08 27 03  13 16 52.200   -34 41 19.77  .02838 0.9970  61.1 19.3  51d  92
2026 08 27 04  13 20 56.227   -33 47 13.79  .02980 0.9964  61.2 19.4  52d  92
2026 08 27 05  13 24 33.549   -32 57 38.28  .03123 0.9957  61.2 19.5  52d  93
2026 08 27 06  13 27 48.229   -32 12 04.09  .03267 0.9951  61.3 19.6  53d  93
2026 08 27 07  13 30 43.560   -31 30 05.49  .03413 0.9945  61.4 19.7  53d  93
2026 08 27 08  13 33 22.240   -30 51 19.84  .03558 0.9938  61.4 19.8  53d  93
2026 08 27 09  13 35 46.494   -30 15 27.20  .03705 0.9932  61.5 19.8  54d  93
2026 08 27 10  13 37 58.176   -29 42 10.08  .03852 0.9926  61.6 19.9  54d  93
2026 08 27 11  13 39 58.837   -29 11 13.09  .04000 0.9919  61.6 20.0  54d  93
2026 08 27 12  13 41 49.787   -28 42 22.66  .04149 0.9913  61.7 20.0  54d  93
2026 08 27 13  13 43 32.140   -28 15 26.82  .04298 0.9907  61.7 20.1  55d  94
2026 08 27 14  13 45 06.846   -27 50 14.99  .04447 0.9900  61.8 20.2  55d  94
2026 08 27 15  13 46 34.721   -27 26 37.79  .04597 .98940  61.8 20.2  55d  94
2026 08 27 16  13 47 56.472   -27 04 26.90  .04747 .98877  61.8 20.3  55d  94
2026 08 27 17  13 49 12.710   -26 43 34.90  .04897 .98813  61.9 20.4  55d  94
2026 08 27 18  13 50 23.970   -26 23 55.15  .05047 .98750  61.9 20.4  55d  94
2026 08 27 19  13 51 30.720   -26 05 21.76  .05198 .98687  61.9 20.5  56d  95
2026 08 27 20  13 52 33.370   -25 47 49.39  .05349 .98624  62.0 20.5  56d  95
2026 08 27 21  13 53 32.284   -25 31 13.27  .05501 .98560  62.0 20.6  56d  95